Mount Pleasant, TX

6:24 AM CDT on June 19, 2018 (GMT -0500)
Mount Pleasant

Weather History for KOSA - June, 2018

Change the Weather History Date:

Thursday, June 14, 2018

  Actual Average (KGGG) Record (KGGG)
Temperature  
Mean Temperature 83 °F -  
Max Temperature 96 °F 87 °F 105 °F (1911)
Min Temperature 71 °F 67 °F 56 °F (1947)
Cooling Degree Days 18    
Growing Degree Days 33 (Base 50)    
Moisture  
Dew Point 70 °F    
Average Humidity 69    
Maximum Humidity 95    
Minimum Humidity 38    
Precipitation  
Precipitation 0.00 in - - ()
Sea Level Pressure  
Sea Level Pressure 30.00 in    
Wind  
Wind Speed 4 mph (SSE)    
Max Wind Speed 10 mph    
Max Gust Speed -    
Visibility 8 miles    
Events      
Averages and records for this station are not official NWS values.
T = Trace of Precipitation, MM = Missing Value Source: NWS Daily Summary

Daily Weather History Graph

Daily Weather History Graph

Search for Another Location

Airport or City:

Astronomy

Jun. 14, 2018 Rise Set
Actual Time 6:10 AM CDT 8:29 PM CDT
Civil Twilight 5:41 AM CDT 8:58 PM CDT
Nautical Twilight 5:06 AM CDT 9:33 PM CDT
Astronomical Twilight 4:28 AM CDT 10:12 PM CDT
Moon 7:05 AM CDT (6/14) 9:34 PM CDT (6/14)
Length of Visible Light 15h 16m
Length of Day
14h 19m
New Moon, 1% of the Moon is Illuminated
Jun 14
New Moon
Jun 20
First Quarter
Jun 27
Full
Jul 6
Last Quarter
Jul 12
New

Hourly Weather History & Observations

Time (CDT) Temp. Heat Index Dew Point Humidity Pressure Visibility Wind Dir Wind Speed Gust Speed Precip Events Conditions
12:15 AM 76.8 °F - 72.0 °F 85% 30.02 in 10.0 mi SSE 3.5 mph - N/A   Clear
12:35 AM 76.5 °F - 71.6 °F 85% 30.00 in 10.0 mi SE 4.6 mph - N/A   Clear
12:55 AM 75.6 °F - 71.4 °F 87% 30.00 in 10.0 mi SSE 5.8 mph - N/A   Clear
1:15 AM 76.3 °F - 71.2 °F 84% 30.01 in 10.0 mi SE 4.6 mph - N/A   Clear
1:35 AM 76.3 °F - 71.1 °F 84% 30.01 in 10.0 mi SE 4.6 mph - N/A   Clear
1:55 AM 75.7 °F - 70.9 °F 85% 30.01 in 10.0 mi ESE 6.9 mph - N/A   Clear
2:15 AM 76.6 °F - 71.1 °F 83% 30.01 in 10.0 mi ESE 5.8 mph - N/A   Clear
2:35 AM 76.1 °F - 71.1 °F 84% 30.02 in 10.0 mi SE 4.6 mph - N/A   Clear
2:55 AM 75.4 °F - 70.9 °F 86% 30.02 in 10.0 mi ESE 4.6 mph - N/A   Clear
3:15 AM 75.4 °F - 70.9 °F 86% 30.02 in 10.0 mi Calm Calm - N/A   Clear
3:35 AM 74.7 °F - 70.9 °F 88% 30.02 in 10.0 mi Calm Calm - N/A   Clear
3:55 AM 75.0 °F - 70.7 °F 86% 30.02 in 10.0 mi SE 3.5 mph - N/A   Clear
4:15 AM 73.4 °F - 70.3 °F 90% 30.02 in 0.2 mi ESE 4.6 mph - N/A   Unknown
4:35 AM 73.8 °F - 70.3 °F 89% 30.03 in 0.2 mi SE 5.8 mph - N/A   Unknown
4:55 AM 72.7 °F - 69.8 °F 91% 30.03 in 4.0 mi Calm Calm - N/A   Clear
5:15 AM 72.5 °F - 69.8 °F 91% 30.02 in 10.0 mi Calm Calm - N/A   Clear
5:35 AM 72.3 °F - 69.8 °F 92% 30.02 in 0.2 mi SE 4.6 mph - N/A   Unknown
5:55 AM 72.0 °F - 69.8 °F 93% 30.02 in 10.0 mi SSE 3.5 mph - N/A   Clear
6:15 AM 71.6 °F - 69.8 °F 94% 30.02 in 10.0 mi Calm Calm - N/A   Clear
6:35 AM 71.6 °F - 69.8 °F 94% 30.03 in 10.0 mi Calm Calm - N/A   Clear
6:55 AM 72.1 °F - 70.3 °F 94% 30.03 in 10.0 mi SE 3.5 mph - N/A   Clear
7:15 AM 71.8 °F - 70.0 °F 94% 30.04 in 10.0 mi South 3.5 mph - N/A   Clear
7:35 AM 71.8 °F - 70.3 °F 95% 30.04 in 10.0 mi Calm Calm - N/A   Clear
7:55 AM 72.7 °F - 70.9 °F 94% 30.05 in 10.0 mi Calm Calm - N/A   Clear
8:15 AM 74.3 °F - 71.2 °F 90% 30.05 in 10.0 mi Calm Calm - N/A   Clear
8:35 AM 75.7 °F - 71.8 °F 87% 30.06 in 10.0 mi Calm Calm - N/A   Clear
8:55 AM 77.9 °F - 72.1 °F 82% 30.06 in 10.0 mi Calm Calm - N/A   Clear
9:15 AM 79.3 °F - 71.6 °F 77% 30.07 in 10.0 mi WSW 3.5 mph - N/A   Clear
9:35 AM 80.4 °F 84.2 °F 71.6 °F 74% 30.06 in 10.0 mi SSW 3.5 mph - N/A   Clear
9:55 AM 81.5 °F 85.9 °F 71.6 °F 72% 30.06 in 10.0 mi Calm Calm - N/A   Clear
10:15 AM 83.7 °F 88.6 °F 71.2 °F 66% 30.06 in 10.0 mi SSW 5.8 mph - N/A   Clear
10:35 AM 83.7 °F 88.3 °F 70.7 °F 65% 30.06 in 10.0 mi SW 6.9 mph - N/A   Clear
10:55 AM 84.4 °F 89.0 °F 70.7 °F 63% 30.05 in 10.0 mi West 4.6 mph - N/A   Clear
11:15 AM 86.7 °F 92.5 °F 71.4 °F 60% 30.05 in 10.0 mi WSW 5.8 mph - N/A   Clear
11:35 AM 88.3 °F 94.1 °F 70.9 °F 56% 30.05 in 10.0 mi WSW 5.8 mph - N/A   Clear
11:55 AM 88.3 °F 94.1 °F 71.1 °F 56% 30.04 in 10.0 mi WSW 3.5 mph - N/A   Clear
12:15 PM 90.3 °F 96.7 °F 71.2 °F 53% 30.04 in 10.0 mi SSW 6.9 mph - N/A   Clear
12:35 PM 90.1 °F 95.8 °F 70.5 °F 52% 30.03 in 10.0 mi SE 5.8 mph - N/A   Clear
12:55 PM 91.6 °F 95.7 °F 68.4 °F 46% 30.03 in 10.0 mi SSW 10.4 mph - N/A   Clear
1:15 PM 92.1 °F 97.7 °F 69.8 °F 48% 30.02 in 10.0 mi South 8.1 mph - N/A   Clear
1:35 PM 92.5 °F 97.4 °F 68.9 °F 46% 30.02 in 10.0 mi WSW 6.9 mph - N/A   Clear
1:55 PM 92.7 °F 97.2 °F 68.7 °F 45% 30.01 in 10.0 mi SW 9.2 mph - N/A   Clear
2:15 PM 93.9 °F 99.1 °F 68.9 °F 44% 30.00 in 10.0 mi South 3.5 mph - N/A   Clear
2:35 PM 93.4 °F 98.1 °F 68.5 °F 44% 29.99 in 10.0 mi SSW 6.9 mph - N/A   Clear
2:55 PM 93.9 °F 97.5 °F 66.7 °F 41% 29.98 in 10.0 mi South 8.1 mph - N/A   Clear
3:15 PM 94.5 °F 98.0 °F 66.4 °F 40% 29.97 in 10.0 mi SSE 8.1 mph - N/A   Clear
3:35 PM 95.0 °F 99.0 °F 67.3 °F 40% 29.96 in 10.0 mi SW 6.9 mph - N/A   Clear
3:55 PM 95.5 °F 100.0 °F 67.8 °F 40% 29.96 in 10.0 mi South 9.2 mph - N/A   Clear
4:15 PM 95.4 °F 99.7 °F 67.5 °F 40% 29.95 in 10.0 mi SW 9.2 mph - N/A   Clear
4:35 PM 93.6 °F 96.9 °F 66.6 °F 41% 29.94 in 10.0 mi SSW 8.1 mph - N/A   Clear
4:55 PM 95.0 °F 99.5 °F 67.8 °F 41% 29.94 in 10.0 mi SSW 10.4 mph - N/A   Clear
5:15 PM 94.8 °F 98.7 °F 66.9 °F 40% 29.93 in 10.0 mi SSW 8.1 mph - N/A   Clear
5:35 PM 95.2 °F 98.3 °F 65.7 °F 38% 29.93 in 10.0 mi SSW 8.1 mph - N/A   Clear
5:55 PM 94.5 °F 98.0 °F 66.9 °F 40% 29.92 in 10.0 mi SSW 6.9 mph - N/A   Clear
6:15 PM 94.3 °F 98.7 °F 68.2 °F 42% 29.92 in 10.0 mi South 9.2 mph - N/A   Clear
6:35 PM 91.8 °F 98.1 °F 70.9 °F 50% 29.92 in 10.0 mi SE 10.4 mph - N/A   Clear
6:55 PM 90.9 °F 96.7 °F 70.3 °F 51% 29.92 in 10.0 mi ESE 9.2 mph - N/A   Clear
7:15 PM 89.6 °F 95.2 °F 70.3 °F 53% 29.92 in 10.0 mi ESE 5.8 mph - N/A   Clear
7:35 PM 88.3 °F 94.1 °F 70.9 °F 56% 29.92 in 10.0 mi SE 5.8 mph - N/A   Clear
7:55 PM 87.6 °F 93.9 °F 71.6 °F 59% 29.92 in 10.0 mi ESE 5.8 mph - N/A   Clear
8:15 PM 86.2 °F 93.0 °F 72.5 °F 64% 29.92 in 10.0 mi Calm Calm - N/A   Scattered Clouds
8:35 PM 84.2 °F 89.9 °F 72.0 °F 67% 29.92 in 10.0 mi SE 3.5 mph - N/A   Clear
8:55 PM 82.6 °F 87.8 °F 72.1 °F 71% 29.93 in 10.0 mi East 3.5 mph - N/A   Clear
9:15 PM 81.3 °F 85.9 °F 72.1 °F 74% 29.93 in 10.0 mi SE 4.6 mph - N/A   Clear
9:35 PM 80.8 °F 85.2 °F 72.5 °F 76% 29.94 in 0.5 mi ESE 4.6 mph - N/A   Unknown
9:55 PM 79.5 °F - 72.5 °F 79% 29.95 in 1.8 mi SE 4.6 mph - N/A   Unknown
10:15 PM 79.3 °F - 72.7 °F 80% 29.96 in 0.5 mi SE 4.6 mph - N/A   Unknown
10:35 PM 79.0 °F - 72.7 °F 81% 29.97 in 0.2 mi SE 5.8 mph - N/A   Unknown
10:55 PM 79.7 °F - 72.7 °F 79% 29.97 in 0.2 mi SE 5.8 mph - N/A   Unknown
11:15 PM 78.8 °F - 72.5 °F 81% 29.98 in 0.2 mi SE 5.8 mph - N/A   Unknown
11:35 PM 78.4 °F - 72.5 °F 82% 29.98 in 0.2 mi SE 4.6 mph - N/A   Unknown
11:55 PM 77.9 °F - 71.8 °F 81% 29.99 in 0.2 mi SE 4.6 mph - N/A   Unknown